Simultaneous Nadir Overpasses (SNOs) Predictions

Prediction of SNOs between AQUA and NPP Satellite Orbit:

Table of predicted SNOs for the next 14.0 days since TLE Epoch: 9/4/2020
Index Date (AQUA) Time (AQUA) Lat,Lon (AQUA) SZA (AQUA ) Date (NPP) Time (NPP) Lat,Lon (NPP) SZA (NPP ) Distance(km) Time Diff (sec)
1 09/05/2020 14:05:28 -75.52, 26.30 88.70 09/05/2020 14:04:58 -75.53, 26.39 88.70 2.78 30
2 09/05/2020 14:54:33 76.52,-162.96 90.17 09/05/2020 14:55:20 76.53,-162.85 90.11 2.98 47
3 09/08/2020 05:37:16 59.61, -46.23 108.20 09/08/2020 05:36:03 59.83, -47.46 108.53 72.73 73
4 09/08/2020 06:21:51 -75.81, 143.02 88.09 09/08/2020 06:21:48 -75.82, 143.09 88.11 2.18 3
5 09/08/2020 07:10:23 78.29, -39.88 88.95 09/08/2020 07:11:37 78.19, -39.59 88.87 12.67 74
6 09/10/2020 21:49:06 75.10, 89.27 93.63 09/10/2020 21:48:13 75.11, 89.36 93.66 2.69 53
7 09/10/2020 22:38:12 -76.18, -99.95 87.58 09/10/2020 22:38:36 -76.19, -99.88 87.62 2.01 24
8 09/13/2020 14:05:34 75.08,-154.91 94.61 09/13/2020 14:05:09 75.07,-155.00 94.65 2.69 25
9 09/13/2020 14:54:33 -76.50, 16.98 86.99 09/13/2020 14:55:24 -76.51, 17.06 87.06 2.29 51
10 09/16/2020 05:33:56 -70.96, 144.99 80.14 09/16/2020 05:32:42 -71.04, 144.56 80.01 17.92 74
11 09/16/2020 06:21:53 75.55, -37.73 95.04 09/16/2020 06:21:55 75.54, -37.80 95.05 1.87 2
